Highgate, VT

12:26 AM EST on November 12, 2019 (GMT -0500)
Franklin County State

Weather History for KFSO - September, 2019

Change the Weather History Date:

Saturday, September 21, 2019

  Actual Average (KPBG) Record (KPBG)
Temperature  
Mean Temperature 69 °F -  
Max Temperature 82 °F 67 °F 89 °F (1965)
Min Temperature 56 °F 48 °F 31 °F (1956)
Cooling Degree Days 4    
Growing Degree Days 19 (Base 50)    
Moisture  
Dew Point 59 °F    
Average Humidity 79    
Maximum Humidity 96    
Minimum Humidity 45    
Precipitation  
Precipitation 0.00 in - - ()
Sea Level Pressure  
Sea Level Pressure 30.18 in    
Wind  
Wind Speed 1 mph (SSW)    
Max Wind Speed 5 mph    
Max Gust Speed -    
Visibility 10 miles    
Events      
Averages and records for this station are not official NWS values.
T = Trace of Precipitation, MM = Missing Value Source: NWS Daily Summary

Daily Weather History Graph

Daily Weather History Graph

Search for Another Location

Airport or City:

Astronomy

Sep. 21, 2019 Rise Set
Actual Time 6:37 AM EDT 6:52 PM EDT
Civil Twilight 6:08 AM EDT 7:21 PM EDT
Nautical Twilight 5:34 AM EDT 7:55 PM EDT
Astronomical Twilight 4:58 AM EDT 8:31 PM EDT
Moon 11:10 PM EDT (9/21) 1:58 PM EDT (9/21)
Length of Visible Light 13h 12m
Length of Day
12h 14m
Waning Gibbous, 55% of the Moon is Illuminated
Sep 21
Waning Gibbous
Sep 21
Last Quarter
Sep 28
New
Oct 5
First Quarter
Oct 13
Full

Hourly Weather History & Observations

Time (EDT) Temp. Heat Index Dew Point Humidity Pressure Visibility Wind Dir Wind Speed Gust Speed Precip Events Conditions
12:15 AM 57.9 °F - 56.3 °F 94% 30.15 in 10.0 mi Calm Calm - N/A   Scattered Clouds
12:35 AM 57.2 °F - 55.6 °F 94% 30.16 in 10.0 mi Calm Calm - N/A   Clear
12:56 AM 56.7 °F - 55.4 °F 96% 30.16 in 10.0 mi Calm Calm - N/A   Clear
1:15 AM 56.3 °F - 55.0 °F 96% 30.16 in 10.0 mi Calm Calm - N/A   Clear
1:36 AM 56.8 °F - 55.6 °F 96% 30.16 in 10.0 mi Calm Calm - N/A   Clear
1:55 AM 56.5 °F - 55.2 °F 96% 30.16 in 10.0 mi Calm Calm - N/A   Clear
2:16 AM 56.5 °F - 55.2 °F 96% 30.17 in 10.0 mi Calm Calm - N/A   Scattered Clouds
2:35 AM 56.3 °F - 54.9 °F 95% 30.17 in 10.0 mi Calm Calm - N/A   Scattered Clouds
2:56 AM 56.5 °F - 55.2 °F 96% 30.17 in 10.0 mi Calm Calm - N/A   Scattered Clouds
3:15 AM 56.7 °F - 55.4 °F 96% 30.17 in 10.0 mi Calm Calm - N/A   Mostly Cloudy
3:35 AM 56.1 °F - 54.9 °F 96% 30.18 in 10.0 mi Calm Calm - N/A   Scattered Clouds
4:16 AM 57.6 °F - 56.3 °F 96% 30.18 in 10.0 mi Calm Calm - N/A   Overcast
4:35 AM 57.4 °F - 56.3 °F 96% 30.19 in 10.0 mi Calm Calm - N/A   Overcast
4:55 AM 58.3 °F - 57.2 °F 96% 30.19 in 10.0 mi Calm Calm - N/A   Overcast
5:15 AM 58.5 °F - 57.2 °F 96% 30.19 in 10.0 mi Calm Calm - N/A   Overcast
5:35 AM 57.9 °F - 56.3 °F 94% 30.19 in 10.0 mi Calm Calm - N/A   Mostly Cloudy
5:55 AM 57.4 °F - 55.9 °F 95% 30.20 in 10.0 mi SE 3.5 mph - N/A   Mostly Cloudy
6:16 AM 57.0 °F - 55.6 °F 95% 30.20 in 10.0 mi Calm Calm - N/A   Mostly Cloudy
6:36 AM 56.5 °F - 55.4 °F 96% 30.20 in 10.0 mi Calm Calm - N/A   Mostly Cloudy
6:55 AM 56.3 °F - 54.9 °F 95% 30.21 in 10.0 mi Calm Calm - N/A   Scattered Clouds
7:16 AM 56.3 °F - 54.9 °F 95% 30.22 in 10.0 mi Calm Calm - N/A   Clear
7:35 AM 56.8 °F - 55.6 °F 96% 30.22 in 10.0 mi Calm Calm - N/A   Clear
7:55 AM 58.1 °F - 56.7 °F 95% 30.22 in 10.0 mi Calm Calm - N/A   Clear
8:16 AM 60.1 °F - 58.1 °F 93% 30.23 in 10.0 mi South 3.5 mph - N/A   Clear
8:35 AM 63.3 °F - 57.0 °F 80% 30.24 in 10.0 mi Calm Calm - N/A   Clear
8:55 AM 65.1 °F - 57.2 °F 75% 30.24 in 10.0 mi Calm Calm - N/A   Clear
9:15 AM 66.2 °F - 57.0 °F 72% 30.25 in 10.0 mi South 3.5 mph - N/A   Clear
9:36 AM 68.0 °F - 57.0 °F 68% 30.25 in 10.0 mi South 3.5 mph - N/A   Clear
9:55 AM 69.3 °F - 57.2 °F 65% 30.25 in 10.0 mi Calm Calm - N/A   Clear
10:15 AM 70.7 °F - 57.6 °F 63% 30.25 in 10.0 mi South 3.5 mph - N/A   Clear
10:35 AM 71.6 °F - 57.6 °F 61% 30.24 in 10.0 mi South 3.5 mph - N/A   Clear
10:56 AM 72.5 °F - 58.1 °F 60% 30.23 in 10.0 mi Calm Calm - N/A   Clear
11:15 AM 73.6 °F - 57.9 °F 58% 30.23 in 10.0 mi WSW 3.5 mph - N/A   Clear
11:36 AM 74.3 °F - 58.1 °F 57% 30.22 in 10.0 mi Calm Calm - N/A   Clear
11:55 AM 75.6 °F - 58.3 °F 55% 30.21 in 10.0 mi SSW 3.5 mph - N/A   Clear
12:16 PM 75.7 °F - 60.1 °F 58% 30.21 in 10.0 mi WSW 3.5 mph - N/A   Clear
12:36 PM 76.3 °F - 58.8 °F 55% 30.20 in 10.0 mi SSW 4.6 mph - N/A   Clear
12:55 PM 77.0 °F - 59.9 °F 55% 30.20 in 10.0 mi South 3.5 mph - N/A   Clear
1:16 PM 78.1 °F - 59.7 °F 53% 30.20 in 10.0 mi SW 3.5 mph - N/A   Clear
1:35 PM 78.8 °F - 59.7 °F 52% 30.19 in 10.0 mi West 3.5 mph - N/A   Clear
1:56 PM 79.2 °F - 59.5 °F 51% 30.18 in 10.0 mi WSW 3.5 mph - N/A   Clear
2:15 PM 79.7 °F - 59.5 °F 50% 30.18 in 10.0 mi SW 4.6 mph - N/A   Clear
2:36 PM 79.9 °F - 58.3 °F 48% 30.17 in 10.0 mi Calm Calm - N/A   Clear
2:55 PM 81.1 °F 81.6 °F 59.5 °F 48% 30.16 in 10.0 mi Calm Calm - N/A   Clear
3:15 PM 80.8 °F 81.1 °F 58.5 °F 46% 30.16 in 10.0 mi Calm Calm - N/A   Clear
3:36 PM 80.8 °F 81.1 °F 58.1 °F 46% 30.15 in 10.0 mi Calm Calm - N/A   Clear
3:55 PM 81.1 °F 81.4 °F 58.3 °F 46% 30.16 in 7.0 mi Calm Calm - N/A   Clear
4:15 PM 82.0 °F 82.1 °F 58.6 °F 45% 30.15 in 10.0 mi Calm Calm - N/A   Clear
4:36 PM 82.0 °F 82.4 °F 60.1 °F 47% 30.15 in 7.0 mi Calm Calm - N/A   Clear
4:55 PM 81.3 °F 82.1 °F 60.8 °F 50% 30.14 in 10.0 mi Calm Calm - N/A   Clear
5:16 PM 80.6 °F 81.6 °F 61.3 °F 52% 30.14 in 10.0 mi Calm Calm - N/A   Clear
5:55 PM 77.9 °F - 64.4 °F 63% 30.14 in 10.0 mi Calm Calm - N/A   Clear
6:15 PM 74.8 °F - 64.0 °F 69% 30.13 in 10.0 mi Calm Calm - N/A   Clear
6:36 PM 70.7 °F - 63.7 °F 78% 30.14 in 10.0 mi Calm Calm - N/A   Clear
6:56 PM 69.1 °F - 63.9 °F 83% 30.13 in 10.0 mi Calm Calm - N/A   Clear
7:15 PM 68.0 °F - 63.5 °F 85% 30.14 in 10.0 mi Calm Calm - N/A   Clear
7:36 PM 66.2 °F - 63.5 °F 91% 30.13 in 10.0 mi Calm Calm - N/A   Clear
7:55 PM 65.7 °F - 63.7 °F 93% 30.14 in 10.0 mi Calm Calm - N/A   Clear
8:16 PM 64.9 °F - 63.7 °F 96% 30.13 in 10.0 mi Calm Calm - N/A   Clear
8:56 PM 63.7 °F - 62.4 °F 96% 30.13 in 10.0 mi Calm Calm - N/A   Clear
9:15 PM 62.8 °F - 61.5 °F 96% 30.13 in 10.0 mi Calm Calm - N/A   Clear
9:35 PM 62.4 °F - 61.2 °F 96% 30.13 in 10.0 mi Calm Calm - N/A   Clear
9:56 PM 62.1 °F - 60.8 °F 96% 30.13 in 10.0 mi Calm Calm - N/A   Clear
10:15 PM 62.4 °F - 61.3 °F 96% 30.13 in 10.0 mi Calm Calm - N/A   Clear
10:36 PM 63.3 °F - 62.1 °F 96% 30.13 in 10.0 mi SE 3.5 mph - N/A   Clear
10:55 PM 62.4 °F - 61.0 °F 95% 30.13 in 10.0 mi SE 3.5 mph - N/A   Clear
11:16 PM 62.1 °F - 60.8 °F 96% 30.12 in 10.0 mi SE 4.6 mph - N/A   Clear
11:35 PM 61.7 °F - 60.6 °F 96% 30.12 in 10.0 mi SE 4.6 mph - N/A   Clear
11:55 PM 61.9 °F - 60.8 °F 96% 30.12 in 10.0 mi Calm Calm - N/A   Clear